Radiation Dose measured at exhaust stack monitor of Fukushima Daiichi Nuclear Power Station
Date,Time,Unit 5 6 shared exhaust cylinders,Wind Direction,Wind Velocity(m/s)
2022/08/13,00:00,3.6,south,11.9
2022/08/13,00:10,3.5,south,11.6
2022/08/13,00:20,3.6,south,12.2
2022/08/13,00:30,3.7,south,10.4
2022/08/13,00:40,3.7,south,9.9
2022/08/13,00:50,3.8,south,8.2
2022/08/13,01:00,3.5,south,9.4
2022/08/13,01:10,3.7,south-southwest,8.9
2022/08/13,01:20,3.6,south,7.7
2022/08/13,01:30,3.8,south,8.3
2022/08/13,01:40,3.6,south,8.0
2022/08/13,01:50,3.6,south,6.8
2022/08/13,02:00,3.8,south,6.9
2022/08/13,02:10,3.7,south,6.5
2022/08/13,02:20,3.8,south,8.8
2022/08/13,02:30,3.8,south,8.5
2022/08/13,02:40,3.6,south,8.2
2022/08/13,02:50,3.7,south,8.8
2022/08/13,03:00,3.6,south,8.9
2022/08/13,03:10,3.6,south,9.7
2022/08/13,03:20,3.7,south,10.5
2022/08/13,03:30,3.6,south,9.9
2022/08/13,03:40,3.7,south,9.7
2022/08/13,03:50,3.6,south,9.8
2022/08/13,04:00,3.7,south,10.9
2022/08/13,04:10,3.8,south,11.3
2022/08/13,04:20,3.6,south-southeast,11.7
2022/08/13,04:30,3.6,south,11.6
2022/08/13,04:40,3.7,south,11.9
2022/08/13,04:50,3.6,south,13.8
2022/08/13,05:00,3.5,south,13.0
2022/08/13,05:10,3.5,south,14.1
2022/08/13,05:20,3.6,south,13.8
2022/08/13,05:30,3.6,south,12.0
2022/08/13,05:40,3.5,south,12.4
2022/08/13,05:50,3.8,south,12.2
2022/08/13,06:00,3.6,south,10.2
2022/08/13,06:10,3.7,south,10.7
2022/08/13,06:20,3.8,south,10.0
2022/08/13,06:30,3.6,south,10.0
2022/08/13,06:40,3.7,south,10.7
2022/08/13,06:50,3.7,south,9.4
2022/08/13,07:00,3.6,south,8.7
2022/08/13,07:10,3.8,south,7.7
2022/08/13,07:20,3.8,south,8.0
2022/08/13,07:30,3.8,south,7.9
2022/08/13,07:40,3.7,south,8.5
2022/08/13,07:50,3.7,south,9.5
2022/08/13,08:00,3.7,south,10.7
2022/08/13,08:10,3.6,south,8.9
2022/08/13,08:20,3.6,south,8.4
2022/08/13,08:30,3.6,south,7.8
2022/08/13,08:40,3.6,south,7.2
2022/08/13,08:50,3.8,south,8.4
2022/08/13,09:00,3.6,south,7.2
2022/08/13,09:10,3.7,south,6.3
2022/08/13,09:20,3.6,south,4.7
2022/08/13,09:30,3.5,south,7.4
2022/08/13,09:40,3.7,south,6.8
2022/08/13,09:50,3.6,south,7.5
2022/08/13,10:00,3.6,south,9.0
2022/08/13,10:10,3.7,south,9.2
2022/08/13,10:20,3.8,south,7.3
2022/08/13,10:30,3.7,south,9.0
2022/08/13,10:40,3.6,south,9.2
2022/08/13,10:50,3.6,south,9.0
2022/08/13,11:00,3.6,south,7.7
2022/08/13,11:10,3.7,south,6.8
2022/08/13,11:20,3.5,south,8.9
2022/08/13,11:30,3.5,south,9.9
2022/08/13,11:40,3.5,south,11.3
2022/08/13,11:50,3.8,south,12.7
2022/08/13,12:00,3.6,south,13.0
2022/08/13,12:10,3.7,south,12.0
2022/08/13,12:20,3.7,south,11.3
2022/08/13,12:30,3.5,south,12.0
2022/08/13,12:40,3.7,south,13.0
2022/08/13,12:50,3.7,south,11.8
2022/08/13,13:00,3.7,south,12.0
2022/08/13,13:10,3.7,south,12.4
2022/08/13,13:20,3.8,south,12.0
2022/08/13,13:30,3.7,south,11.4
2022/08/13,13:40,3.7,south,9.9
2022/08/13,13:50,3.7,south,12.0
2022/08/13,14:00,3.7,south-southwest,10.7
2022/08/13,14:10,3.7,south,10.0
2022/08/13,14:20,3.6,south,11.0
2022/08/13,14:30,3.7,south,8.7
2022/08/13,14:40,3.5,south,7.5
2022/08/13,14:50,3.6,south,8.3
2022/08/13,15:00,3.6,south-southwest,6.3
2022/08/13,15:10,3.8,south-southwest,5.3
2022/08/13,15:20,3.8,south,6.3
2022/08/13,15:30,3.7,south,6.2
2022/08/13,15:40,3.5,south,8.4
2022/08/13,15:50,3.5,south,9.9
2022/08/13,16:00,3.6,south,12.4
2022/08/13,16:10,3.6,south,10.3
2022/08/13,16:20,3.5,south,10.2
2022/08/13,16:30,3.7,south,9.5
2022/08/13,16:40,3.8,south-southeast,8.5
2022/08/13,16:50,3.6,south,8.3
2022/08/13,17:00,3.8,south,8.5
2022/08/13,17:10,3.8,south,8.6
2022/08/13,17:20,3.8,south,10.4
2022/08/13,17:30,3.8,south,11.3
2022/08/13,17:40,3.8,south,9.4
2022/08/13,17:50,3.6,south,6.7
2022/08/13,18:00,3.6,south-southeast,7.8
2022/08/13,18:10,3.5,south,6.3
2022/08/13,18:20,3.5,south-southeast,6.7
2022/08/13,18:30,3.8,south,5.4
2022/08/13,18:40,3.8,south,6.2
2022/08/13,18:50,3.6,south,7.1
2022/08/13,19:00,3.5,south,5.9
2022/08/13,19:10,3.5,south,7.1
2022/08/13,19:20,3.6,south,9.3
2022/08/13,19:30,3.7,south,9.3
2022/08/13,19:40,3.7,south,11.1
2022/08/13,19:50,3.5,south,10.4
2022/08/13,20:00,3.7,south,10.4
2022/08/13,20:10,3.5,south,8.2
2022/08/13,20:20,3.6,south,9.5
2022/08/13,20:30,3.8,south,9.6
2022/08/13,20:40,3.6,south,9.0
2022/08/13,20:50,3.6,south,8.0
2022/08/13,21:00,3.7,south,6.6
2022/08/13,21:10,3.6,south,7.5
2022/08/13,21:20,3.7,south,6.2
2022/08/13,21:30,3.8,south,6.0
2022/08/13,21:40,3.7,south,6.1
2022/08/13,21:50,3.7,south,6.1
2022/08/13,22:00,3.6,south-southeast,5.5
2022/08/13,22:10,3.7,south-southeast,5.2
2022/08/13,22:20,3.6,south-southeast,5.7
2022/08/13,22:30,3.6,south-southeast,4.6
2022/08/13,22:40,3.6,southeast,2.8
2022/08/13,22:50,3.8,south,3.5
2022/08/13,23:00,3.8,south-southeast,2.6
2022/08/13,23:10,3.6,southeast,4.5
2022/08/13,23:20,3.6,southeast,3.8
2022/08/13,23:30,3.6,east-southeast,3.6
2022/08/13,23:40,3.8,east,4.4
2022/08/13,23:50,3.7,east-northeast,4.0
